User: anonymous   Login
Location: Mentone
(34.5413°N, 85.5351°W)
Time: 23:26:37
(UTC-05:00)
Language:

Cosmos 2026 Rocket - Orbit

View from above orbital plane
View from above orbital plane
View from above satellite
View from above satellite

Ground track
Ground track

The orbit data is extracted from the following two-line orbital elements,

1 20046U 89042B   16237.43791995  .00000016  00000-0  50026-6 0  9997
2 20046  82.9402 164.3438 0041880 178.8116 318.8737 13.78066151368384
Epoch (UTC): 24 August 2016 10:30:36
Eccentricity: 0.0041880
inclination: 82.9402°
perigee height: 940 km
apogee height: 1001 km
right ascension of ascending node: 164.3438°
argument of perigee: 178.8116°
revolutions per day: 13.78066151
mean anomaly at epoch: 318.8737°
orbit number at epoch: 36838

The dashed part of the orbit path shows where the satellite is in the earth's shadow,  

DLR